Location: Ladrillo (historical)
(32.8195°N, 117.2231°W)
Time: 08:05:08
(UTC+00:00)

FO-99 - Pass Details

Date: 15 April 2021
Orbit: 472 x 506 km, 97.2° (Epoch: 09 May)

Event Time Altitude Azimuth Distance (km) Brightness Sun altitude
Exits shadow 03:57:59 63° 162° (SSE) 567 ? -20.4°
Maximum altitude 03:58:32 87° 81° (E) 510 ? -20.5°
Drops below altitude 10° 04:02:15 10° 350° (N) 1,723 ? -21.2°
Sets 04:04:21 0° 350° (N) 2,612 ? -21.6°
